Time,TemperatureF,DewpointF,PressureIn,WindDirection,WindDirectionDegrees,WindSpeedMPH,WindSpeedGustMPH,Humidity,HourlyPrecipIn,Conditions,Clouds,dailyrainin,SolarRadiationWatts/m^2,SoftwareType,DateUTC
2013-06-03 00:00:00,55.0,45.0,-100.00,SW,225,6.0,-999.0,69,-99.99,,,-99.99,0.000000,,2013-06-03 04:00:00,
2013-06-03 00:33:00,55.0,45.0,-100.00,SW,225,6.0,-999.0,69,-99.99,,,-99.99,0.000000,,2013-06-03 04:33:00,
2013-06-03 00:42:00,55.0,45.0,-100.00,SW,225,6.0,-999.0,69,-99.99,,,-99.99,0.000000,,2013-06-03 04:42:00,
2013-06-03 00:53:00,55.0,45.0,-100.00,SW,225,6.0,-999.0,69,-99.99,,,-99.99,0.000000,,2013-06-03 04:53:00,
2013-06-03 01:00:00,54.0,45.0,-100.00,SE,135,7.0,-999.0,69,-99.99,,,-99.99,0.000000,,2013-06-03 05:00:00,
2013-06-03 01:32:00,54.0,45.0,-100.00,SE,135,7.0,-999.0,69,-99.99,,,-99.99,0.000000,,2013-06-03 05:32:00,
2013-06-03 01:43:00,54.0,45.0,-100.00,SE,135,7.0,-999.0,69,-99.99,,,-99.99,0.000000,,2013-06-03 05:43:00,
2013-06-03 01:52:00,54.0,45.0,-100.00,SE,135,7.0,-999.0,69,-99.99,,,-99.99,0.000000,,2013-06-03 05:52:00,
2013-06-03 02:00:00,53.0,43.0,-100.00,SE,135,9.0,-999.0,68,-99.99,,,-99.99,0.000000,,2013-06-03 06:00:00,
2013-06-03 02:32:00,53.0,43.0,-100.00,SE,135,9.0,-999.0,68,-99.99,,,-99.99,0.000000,,2013-06-03 06:32:00,
2013-06-03 02:42:00,53.0,43.0,-100.00,SE,135,9.0,-999.0,68,-99.99,,,-99.99,0.000000,,2013-06-03 06:42:00,
2013-06-03 02:53:00,53.0,43.0,-100.00,SE,135,9.0,-999.0,68,-99.99,,,-99.99,0.000000,,2013-06-03 06:53:00,
2013-06-03 03:00:00,52.0,42.0,-100.00,ENE,67,7.0,-999.0,68,-99.99,,,-99.99,0.000000,,2013-06-03 07:00:00,
2013-06-03 03:32:00,52.0,42.0,-100.00,ENE,67,7.0,-999.0,68,-99.99,,,-99.99,0.000000,,2013-06-03 07:32:00,
2013-06-03 03:42:00,52.0,42.0,-100.00,ENE,67,7.0,-999.0,68,-99.99,,,-99.99,0.000000,,2013-06-03 07:42:00,
2013-06-03 03:52:00,52.0,42.0,-100.00,ENE,67,7.0,-999.0,68,-99.99,,,-99.99,0.000000,,2013-06-03 07:52:00,
2013-06-03 04:00:00,51.0,41.0,-100.00,South,180,7.0,-999.0,69,-99.99,,,-99.99,0.000000,,2013-06-03 08:00:00,
2013-06-03 04:32:00,51.0,41.0,-100.00,South,180,7.0,-999.0,69,-99.99,,,-99.99,0.000000,,2013-06-03 08:32:00,
2013-06-03 04:42:00,51.0,41.0,-100.00,South,180,7.0,-999.0,69,-99.99,,,-99.99,0.000000,,2013-06-03 08:42:00,
2013-06-03 04:52:00,51.0,41.0,-100.00,South,180,7.0,-999.0,69,-99.99,,,-99.99,0.000000,,2013-06-03 08:52:00,
2013-06-03 05:00:00,49.0,40.0,-100.00,WSW,247,8.0,-999.0,71,-99.99,,,-99.99,0.000000,,2013-06-03 09:00:00,
2013-06-03 05:33:00,49.0,40.0,-100.00,WSW,247,8.0,-999.0,71,-99.99,,,-99.99,0.000000,,2013-06-03 09:33:00,
2013-06-03 05:43:00,49.0,40.0,-100.00,WSW,247,8.0,-999.0,71,-99.99,,,-99.99,0.000000,,2013-06-03 09:43:00,
2013-06-03 05:53:00,49.0,40.0,-100.00,WSW,247,8.0,-999.0,71,-99.99,,,-99.99,0.000000,,2013-06-03 09:53:00,
2013-06-03 06:00:00,45.0,39.0,-100.00,SSE,157,6.0,-999.0,78,-99.99,,,-99.99,0.000000,,2013-06-03 10:00:00,
2013-06-03 06:33:00,45.0,39.0,-100.00,SSE,157,6.0,-999.0,78,-99.99,,,-99.99,0.000000,,2013-06-03 10:33:00,
2013-06-03 06:42:00,45.0,39.0,-100.00,SSE,157,6.0,-999.0,78,-99.99,,,-99.99,0.000000,,2013-06-03 10:42:00,
2013-06-03 06:53:00,45.0,39.0,-100.00,SSE,157,6.0,-999.0,78,-99.99,,,-99.99,0.000000,,2013-06-03 10:53:00,
2013-06-03 07:00:00,44.0,39.0,-100.00,ENE,67,4.0,-999.0,81,-99.99,,,-99.99,47.560001,,2013-06-03 11:00:00,
2013-06-03 07:32:00,44.0,39.0,-100.00,ENE,67,4.0,-999.0,81,-99.99,,,-99.99,47.560001,,2013-06-03 11:32:00,
2013-06-03 07:42:00,44.0,39.0,-100.00,ENE,67,4.0,-999.0,81,-99.99,,,-99.99,47.560001,,2013-06-03 11:42:00,
2013-06-03 07:52:00,44.0,39.0,-100.00,ENE,67,4.0,-999.0,81,-99.99,,,-99.99,47.560001,,2013-06-03 11:52:00,
2013-06-03 08:00:00,48.0,40.0,-100.00,NE,45,5.0,-999.0,72,-99.99,,,-99.99,212.279999,,2013-06-03 12:00:00,
2013-06-03 08:32:00,48.0,40.0,-100.00,NE,45,5.0,-999.0,72,-99.99,,,-99.99,212.279999,,2013-06-03 12:32:00,
2013-06-03 08:42:00,48.0,40.0,-100.00,NE,45,5.0,-999.0,72,-99.99,,,-99.99,212.279999,,2013-06-03 12:42:00,
2013-06-03 08:52:00,48.0,40.0,-100.00,NE,45,5.0,-999.0,72,-99.99,,,-99.99,212.279999,,2013-06-03 12:52:00,
2013-06-03 09:00:00,52.0,40.0,-100.00,SSW,202,4.0,-999.0,64,-99.99,,,-99.99,392.079987,,2013-06-03 13:00:00,
2013-06-03 09:33:00,52.0,40.0,-100.00,SSW,202,4.0,-999.0,64,-99.99,,,-99.99,392.079987,,2013-06-03 13:33:00,
2013-06-03 09:43:00,52.0,40.0,-100.00,SSW,202,4.0,-999.0,64,-99.99,,,-99.99,392.079987,,2013-06-03 13:43:00,
2013-06-03 09:53:00,52.0,40.0,-100.00,SSW,202,4.0,-999.0,64,-99.99,,,-99.99,392.079987,,2013-06-03 13:53:00,
2013-06-03 10:00:00,55.0,40.0,-100.00,SE,135,5.0,-999.0,55,-99.99,,,-99.99,556.799988,,2013-06-03 14:00:00,
2013-06-03 10:33:00,55.0,40.0,-100.00,SE,135,5.0,-999.0,55,-99.99,,,-99.99,556.799988,,2013-06-03 14:33:00,
2013-06-03 10:42:00,55.0,40.0,-100.00,SE,135,5.0,-999.0,55,-99.99,,,-99.99,556.799988,,2013-06-03 14:42:00,
2013-06-03 10:52:00,55.0,40.0,-100.00,SE,135,5.0,-999.0,55,-99.99,,,-99.99,556.799988,,2013-06-03 14:52:00,
2013-06-03 11:00:00,58.0,38.0,-100.00,SE,135,5.0,-999.0,47,-99.99,,,-99.99,701.799988,,2013-06-03 15:00:00,
2013-06-03 11:33:00,58.0,38.0,-100.00,SE,135,5.0,-999.0,47,-99.99,,,-99.99,701.799988,,2013-06-03 15:33:00,
2013-06-03 11:43:00,58.0,38.0,-100.00,SE,135,5.0,-999.0,47,-99.99,,,-99.99,701.799988,,2013-06-03 15:43:00,
2013-06-03 11:53:00,58.0,38.0,-100.00,SE,135,5.0,-999.0,47,-99.99,,,-99.99,701.799988,,2013-06-03 15:53:00,
2013-06-03 12:00:00,59.0,37.0,-100.00,SE,135,4.0,-999.0,43,-99.99,,,-99.99,813.159973,,2013-06-03 16:00:00,
2013-06-03 12:33:00,59.0,37.0,-100.00,SE,135,4.0,-999.0,43,-99.99,,,-99.99,813.159973,,2013-06-03 16:33:00,
2013-06-03 12:42:00,59.0,37.0,-100.00,SE,135,4.0,-999.0,43,-99.99,,,-99.99,813.159973,,2013-06-03 16:42:00,
2013-06-03 12:53:00,59.0,37.0,-100.00,SE,135,4.0,-999.0,43,-99.99,,,-99.99,813.159973,,2013-06-03 16:53:00,
2013-06-03 13:00:00,61.0,37.0,-100.00,SSE,157,4.0,-999.0,40,-99.99,,,-99.99,885.080017,,2013-06-03 17:00:00,
2013-06-03 13:33:00,61.0,37.0,-100.00,SSE,157,4.0,-999.0,40,-99.99,,,-99.99,885.080017,,2013-06-03 17:33:00,
2013-06-03 13:42:00,61.0,37.0,-100.00,SSE,157,4.0,-999.0,40,-99.99,,,-99.99,885.080017,,2013-06-03 17:42:00,
2013-06-03 13:52:00,61.0,37.0,-100.00,SSE,157,4.0,-999.0,40,-99.99,,,-99.99,885.080017,,2013-06-03 17:52:00,
2013-06-03 14:00:00,62.0,36.0,-100.00,SW,225,4.0,-999.0,38,-99.99,,,-99.99,923.359985,,2013-06-03 18:00:00,
2013-06-03 14:32:00,62.0,36.0,-100.00,SW,225,4.0,-999.0,38,-99.99,,,-99.99,923.359985,,2013-06-03 18:32:00,
2013-06-03 14:43:00,62.0,36.0,-100.00,SW,225,4.0,-999.0,38,-99.99,,,-99.99,923.359985,,2013-06-03 18:43:00,
2013-06-03 14:53:00,62.0,36.0,-100.00,SW,225,4.0,-999.0,38,-99.99,,,-99.99,923.359985,,2013-06-03 18:53:00,
2013-06-03 15:00:00,64.0,37.0,-100.00,SE,135,4.0,-999.0,36,-99.99,,,-99.99,897.840027,,2013-06-03 19:00:00,
2013-06-03 15:33:00,64.0,37.0,-100.00,SE,135,4.0,-999.0,36,-99.99,,,-99.99,897.840027,,2013-06-03 19:33:00,
2013-06-03 15:42:00,64.0,37.0,-100.00,SE,135,4.0,-999.0,36,-99.99,,,-99.99,897.840027,,2013-06-03 19:42:00,
2013-06-03 15:53:00,64.0,37.0,-100.00,SE,135,4.0,-999.0,36,-99.99,,,-99.99,897.840027,,2013-06-03 19:53:00,
2013-06-03 16:00:00,65.0,38.0,-100.00,South,180,4.0,-999.0,35,-99.99,,,-99.99,830.559998,,2013-06-03 20:00:00,
2013-06-03 16:33:00,65.0,38.0,-100.00,South,180,4.0,-999.0,35,-99.99,,,-99.99,830.559998,,2013-06-03 20:33:00,
2013-06-03 16:43:00,65.0,38.0,-100.00,South,180,4.0,-999.0,35,-99.99,,,-99.99,830.559998,,2013-06-03 20:43:00,
2013-06-03 16:52:00,65.0,38.0,-100.00,South,180,4.0,-999.0,35,-99.99,,,-99.99,830.559998,,2013-06-03 20:52:00,
2013-06-03 17:00:00,67.0,38.0,-100.00,South,180,5.0,-999.0,33,-99.99,,,-99.99,716.880005,,2013-06-03 21:00:00,
2013-06-03 17:33:00,67.0,38.0,-100.00,South,180,5.0,-999.0,33,-99.99,,,-99.99,716.880005,,2013-06-03 21:33:00,
2013-06-03 17:43:00,67.0,38.0,-100.00,South,180,5.0,-999.0,33,-99.99,,,-99.99,716.880005,,2013-06-03 21:43:00,
2013-06-03 17:53:00,67.0,38.0,-100.00,South,180,5.0,-999.0,33,-99.99,,,-99.99,716.880005,,2013-06-03 21:53:00,
2013-06-03 18:00:00,68.0,38.0,-100.00,SSE,157,5.0,-999.0,32,-99.99,,,-99.99,556.799988,,2013-06-03 22:00:00,
2013-06-03 18:33:00,68.0,38.0,-100.00,SSE,157,5.0,-999.0,32,-99.99,,,-99.99,556.799988,,2013-06-03 22:33:00,
2013-06-03 18:42:00,68.0,38.0,-100.00,SSE,157,5.0,-999.0,32,-99.99,,,-99.99,556.799988,,2013-06-03 22:42:00,
2013-06-03 18:53:00,68.0,38.0,-100.00,SSE,157,5.0,-999.0,32,-99.99,,,-99.99,556.799988,,2013-06-03 22:53:00,
2013-06-03 19:00:00,68.0,37.0,-100.00,South,180,6.0,-999.0,31,-99.99,,,-99.99,396.720001,,2013-06-03 23:00:00,
2013-06-03 19:32:00,68.0,37.0,-100.00,South,180,6.0,-999.0,31,-99.99,,,-99.99,396.720001,,2013-06-03 23:32:00,
2013-06-03 19:42:00,68.0,37.0,-100.00,South,180,6.0,-999.0,31,-99.99,,,-99.99,396.720001,,2013-06-03 23:42:00,
2013-06-03 19:52:00,68.0,37.0,-100.00,South,180,6.0,-999.0,31,-99.99,,,-99.99,396.720001,,2013-06-03 23:52:00,
2013-06-03 20:00:00,67.0,37.0,-100.00,SE,135,6.0,-999.0,33,-99.99,,,-99.99,218.080002,,2013-06-04 00:00:00,
2013-06-03 20:32:00,67.0,37.0,-100.00,SE,135,6.0,-999.0,33,-99.99,,,-99.99,218.080002,,2013-06-04 00:32:00,
2013-06-03 20:42:00,67.0,37.0,-100.00,SE,135,6.0,-999.0,33,-99.99,,,-99.99,218.080002,,2013-06-04 00:42:00,
2013-06-03 20:52:00,67.0,37.0,-100.00,SE,135,6.0,-999.0,33,-99.99,,,-99.99,218.080002,,2013-06-04 00:52:00,
2013-06-03 21:00:00,63.0,40.0,-100.00,NE,45,4.0,-999.0,43,-99.99,,,-99.99,53.360001,,2013-06-04 01:00:00,
2013-06-03 21:32:00,63.0,40.0,-100.00,NE,45,4.0,-999.0,43,-99.99,,,-99.99,53.360001,,2013-06-04 01:32:00,
2013-06-03 21:42:00,63.0,40.0,-100.00,NE,45,4.0,-999.0,43,-99.99,,,-99.99,53.360001,,2013-06-04 01:42:00,
2013-06-03 21:53:00,63.0,40.0,-100.00,NE,45,4.0,-999.0,43,-99.99,,,-99.99,53.360001,,2013-06-04 01:53:00,
2013-06-03 22:00:00,55.0,41.0,-100.00,NE,45,2.0,-999.0,59,-99.99,,,-99.99,1.160000,,2013-06-04 02:00:00,
2013-06-03 22:32:00,55.0,41.0,-100.00,NE,45,2.0,-999.0,59,-99.99,,,-99.99,1.160000,,2013-06-04 02:32:00,
2013-06-03 22:42:00,55.0,41.0,-100.00,NE,45,2.0,-999.0,59,-99.99,,,-99.99,1.160000,,2013-06-04 02:42:00,
2013-06-03 22:52:00,55.0,41.0,-100.00,NE,45,2.0,-999.0,59,-99.99,,,-99.99,1.160000,,2013-06-04 02:52:00,
2013-06-03 23:00:00,52.0,46.0,-100.00,SE,135,1.0,-999.0,79,-99.99,,,-99.99,0.000000,,2013-06-04 03:00:00,
2013-06-03 23:33:00,52.0,46.0,-100.00,SE,135,1.0,-999.0,79,-99.99,,,-99.99,0.000000,,2013-06-04 03:33:00,
2013-06-03 23:43:00,52.0,46.0,-100.00,SE,135,1.0,-999.0,79,-99.99,,,-99.99,0.000000,,2013-06-04 03:43:00,
2013-06-03 23:54:00,52.0,46.0,-100.00,SE,135,1.0,-999.0,79,-99.99,,,-99.99,0.000000,,2013-06-04 03:54:00,